Location: Córrego Montividiu
(13.2496°S, 48.8603°W)
Time: 12:06:06
(UTC+00:00)

Cosmos 1992 Rocket - Pass Details

Date: 11 March 2026
Orbit: 754 x 761 km, 74.0° (Epoch: 22 April)

Event Time Altitude Azimuth Distance (km) Brightness Sun altitude
Rises 23:26:39 0° 340° (NNW) 3,201 7.3 -28.5°
Reaches altitude 10° 23:29:02 10° 336° (NNW) 2,280 6.6 -29.1°
Enters shadow 23:33:58 59° 266° (W) 871 4.4 -30.2°
Exits shadow 23:40:00 - 175° (S) 2,576 6.8 -31.7°
Sets 23:41:40 0° 173° (S) 3,224 7.3 -32.1°
